Regional Weather Roundup
Issued by NWS

Home | Current Version | Previous Version | Text Only | Print | Product List | Glossary Off
Versions: 1 2 3 4 5 6 7 8 9 10 11 12 13 14 15 16 17 18 19 20 21 22 23 24 25 26 27 28 29 30 31 32 33 34 35 36 37 38 39 40 41 42 43 44 45 46 47 48 49 50

000
ASUS43 KLSX 031507
RWRMO

WEATHER SUMMARY FOR MISSOURI
NATIONAL WEATHER SERVICE SPRINGFIELD MO
1000 AM CDT FRI JUL 03 2015

NOTE: "FAIR" INDICATES FEW OR NO CLOUDS BELOW 12,000 FEET WITH NO
       SIGNIFICANT WEATHER AND/OR OBSTRUCTIONS TO VISIBILITY.
       CURRENT SKY AND/OR WEATHER CONDITIONS ARE NOT AVAILABLE FOR
       CHILLICOTHE AND FARMINGTON.

MOZ001>031-035>038-043-044-053-054-031600-
...NORTHERN AND WESTERN MISSOURI...

CITY           SKY/WX    TMP DP  RH WIND       PRES   REMARKS
KANSAS CTY INT PTSUNNY   72  63  73 VRB6      29.97R
KANSAS C DTWN  CLOUDY    72  63  73 NE8       29.95S
LEE`S SUMMIT   PTSUNNY   71  63  75 NE8       29.97R
ST JOSEPH      SUNNY     71  61  70 N6        29.98S
CHILLICOTHE      N/A     72  61  68 NE6       29.99S
KIRKSVILLE     SUNNY     70  61  73 NE8       29.99R

$$
MOZ066>068-077>081-088>096-101>105-031600-
...SOUTHWEST MISSOURI...

CITY           SKY/WX    TMP DP  RH WIND       PRES   REMARKS
SPRINGFIELD    LGT RAIN  70  67  90 CALM      29.93F
JOPLIN         PTSUNNY   75  70  84 N6        29.94R

$$
MOZ032>034-039>042-045>050-055>058-069>072-031600-
...CENTRAL MISSOURI...

CITY           SKY/WX    TMP DP  RH WIND       PRES   REMARKS
COLUMBIA       SUNNY     73  63  70 NE8       29.95R
JEFFERSON CITY MOSUNNY   74  62  66 CALM      29.93R
ROLLA          CLOUDY    70  64  81 CALM      29.93R
SEDALIA        CLOUDY    72  64  76 N3        29.96S
WHITEMAN AFB   CLOUDY    68  64  85 NE7       29.95R
OSAGE BEACH    CLOUDY    70  64  83 E5        29.93S

$$
MOZ051-052-059>065-031600-
...EAST CENTRAL MISSOURI...

CITY           SKY/WX    TMP DP  RH WIND       PRES   REMARKS
ST LOUIS INTL  MOSUNNY   74  64  71 NW8       29.93R
SPIRIT OF STL  SUNNY     74  66  76 NW6       29.91R
ST CHARLES     MOSUNNY   71  65  81 N7        29.92R

$$
MOZ072>076-082>087-097>100-106>115-031600-
...SOUTH CENTRAL AND SOUTHEAST MISSOURI...

CITY           SKY/WX    TMP DP  RH WIND       PRES   REMARKS
CAPE GIRARDEAU PTSUNNY   74  68  81 CALM      29.91R
FARMINGTON     SUNNY     73  66  78 N6        29.96S
POPLAR BLUFF   CLOUDY    75  69  81 CALM      29.91S
WEST PLAINS    CLOUDY    71  67  87 NE5       29.95S FOG

$$



USA.gov is the U.S. government's official web portal to all federal, state and local government web resources and services.